Wind_Speed
9 8 9 9 9 9 8 7 8 8 8 7 6 8 7 6 7 7 7 7 7 8 9 10 9 9 10 9 9 10 10 10 10 10 11 9 9 11 12 13 13 12 10 9 9 9 10 9 10 12 12 12 13 12 11 10 10 10 10 10 10 10 10 10 10 10 10 10 10 10 10 10 9 9 10 10 10 9 9 9 9 9 9 9 8
9 10 10 11 10 10 9 9 9 9 8 7 8 9 7 8 8 8 9 8 8 8 10 9 8 8 9 9 8 8 8 9 9 9 9 9 8 9 11 12 14 14 12 11 10 10 9 10 10 11 12 13 13 14 13 12 11 11 11 11 11 11 11 11 11 11 11 11 12 12 12 12 11 11 11 11 11 11 11 11 11 11 10 10 10
11 11 11 12 11 11 10 10 10 10 9 8 9 10 9 10 10 9 9 9 9 10 11 9 7 7 9 10 8 7 7 7 7 7 7 9 9 9 9 11 13 14 14 12 12 11 10 10 10 10 10 12 14 14 14 14 13 12 11 11 11 12 12 12 12 12 12 12 12 13 13 14 13 13 13 13 13 12 12 12 12 12 11 11 11
11 11 12 12 12 11 11 11 11 10 10 11 11 11 11 11 11 11 9 9 9 11 12 9 6 7 8 9 8 6 6 6 5 6 6 7 10 10 10 11 12 13 14 14 13 12 11 10 10 11 10 12 13 14 13 13 14 14 13 13 12 12 12 13 13 13 13 13 13 14 14 15 15 14 14 14 14 13 13 13 12 12 12 12 12
11 12 12 13 13 13 12 11 10 10 12 13 13 12 12 11 12 11 9 8 8 9 10 7 6 8 7 7 8 6 6 5 5 5 6 5 8 9 10 11 12 12 13 13 14 13 12 11 11 11 11 12 14 14 13 13 13 13 14 14 14 14 14 14 14 14 14 14 14 14 15 15 15 15 15 15 14 14 14 14 13 13 12 13 13
13 13 13 14 13 13 13 11 11 13 14 14 14 12 12 12 11 10 9 7 6 7 9 7 6 7 7 6 7 6 5 4 5 5 5 5 6 7 7 9 11 13 13 13 14 14 14 14 13 12 12 13 14 14 14 14 13 13 13 14 15 15 15 15 15 14 14 14 14 14 15 15 15 15 14 14 14 14 15 15 15 14 14 14 14
14 14 15 15 15 14 13 14 16 17 15 15 15 12 12 13 10 8 8 7 6 8 11 10 7 6 7 7 5 6 5 4 5 4 4 5 5 5 5 6 7 9 12 13 14 14 14 14 14 13 12 13 15 16 15 14 13 14 14 14 15 15 16 16 17 16 16 16 16 15 15 16 16 16 15 15 14 14 14 14 15 15 15 15 15
16 17 17 17 17 16 14 17 19 18 17 18 16 12 13 12 9 8 9 8 7 9 10 10 8 7 7 6 5 6 4 3 4 3 4 4 3 4 4 4 3 5 7 8 11 14 14 14 14 13 12 12 14 16 16 15 14 14 15 16 16 16 17 17 18 18 18 18 18 18 17 17 17 17 16 16 15 14 14 14 14 14 15 16 16
17 18 19 19 18 17 17 20 20 19 19 19 16 14 13 10 8 9 10 9 8 8 8 9 9 7 6 5 5 5 3 3 2 2 4 4 2 3 4 4 3 3 3 3 6 9 11 13 14 13 12 12 12 14 15 16 16 16 17 18 17 18 18 19 19 18 19 20 21 21 20 19 19 19 18 17 17 16 15 15 14 14 15 16 16
17 17 19 19 17 16 18 20 21 20 20 20 18 15 11 9 9 10 10 10 9 8 8 8 9 7 4 5 5 3 2 2 2 2 2 3 3 3 4 5 4 4 4 3 2 4 6 8 10 11 11 12 12 12 13 15 16 16 17 17 18 18 19 20 20 19 20 21 21 22 22 21 21 20 20 20 19 18 17 17 16 16 16 16 16
17 18 19 18 17 18 18 19 21 21 21 19 15 11 9 9 10 11 11 11 10 8 7 7 8 6 5 5 5 3 1 1 1 1 1 2 4 3 4 5 4 4 4 4 4 2 2 4 5 7 9 11 12 13 14 14 15 16 16 17 18 19 19 19 20 21 21 21 21 21 21 22 22 22 22 22 22 21 20 19 18 18 17 17 17
17 18 19 18 18 19 19 19 21 21 18 14 9 8 9 10 11 11 11 11 9 6 5 6 6 6 4 4 5 4 2 1 0 1 1 2 4 3 3 4 4 4 4 3 4 3 3 3 3 4 7 9 10 11 13 14 14 15 16 18 18 19 19 19 20 22 22 21 21 21 21 22 22 22 23 23 23 23 22 21 20 19 19 18 18
17 17 18 17 18 18 17 17 17 15 12 9 8 10 12 14 13 12 11 9 7 5 6 6 4 4 3 2 3 3 1 1 1 2 2 2 3 3 2 3 4 4 3 3 3 3 3 3 4 4 5 6 8 8 10 11 13 15 16 17 19 19 19 19 20 21 20 19 21 22 23 23 22 23 24 24 24 24 24 23 22 21 20 19 19
16 16 15 14 14 14 13 13 12 10 8 8 11 13 14 13 10 8 8 7 6 5 6 5 4 3 2 2 2 2 1 2 1 1 2 2 2 2 3 3 4 4 4 4 3 3 4 4 4 5 5 5 6 7 7 8 10 13 14 16 18 18 19 19 19 20 20 20 21 22 23 24 24 23 24 25 25 24 24 25 25 24 22 20 20
15 14 12 11 10 10 10 9 8 8 8 10 12 12 11 8 5 4 4 5 5 5 6 4 3 3 3 3 2 3 3 0 1 1 1 2 2 2 3 3 5 4 5 5 4 3 3 4 4 5 5 5 6 7 8 8 9 11 12 14 15 16 17 18 18 19 19 21 22 22 23 24 25 25 26 26 25 25 25 25 26 25 24 23 22
12 11 10 10 10 10 9 8 8 9 10 11 10 8 7 4 3 3 3 4 5 5 6 4 3 3 3 3 2 4 4 2 2 2 1 1 1 2 2 3 4 4 3 3 3 3 4 4 5 5 6 5 5 6 7 9 10 10 10 13 14 15 16 16 16 16 17 18 20 21 22 23 25 26 27 27 27 26 26 26 26 25 25 25 24
11 11 11 10 10 10 9 9 9 10 11 10 7 5 4 3 3 4 4 4 4 4 6 5 5 4 4 4 4 4 2 0 2 3 2 2 0 1 2 2 3 5 4 5 5 5 5 6 6 6 7 7 7 6 7 8 9 10 11 13 15 15 15 16 16 16 16 17 18 19 21 22 23 25 25 26 27 27 27 27 27 26 26 26 25
12 12 10 8 8 9 8 8 9 10 10 8 5 4 4 4 4 5 5 5 5 4 5 6 6 5 5 5 5 4 3 2 3 3 3 2 3 2 1 1 3 5 6 6 6 6 5 7 7 7 7 7 8 8 8 8 8 9 11 13 14 15 15 16 17 17 17 17 18 19 19 19 21 22 23 24 26 27 28 29 29 28 28 27 27
11 10 8 6 7 7 8 8 8 9 8 7 5 4 5 6 5 5 5 5 4 3 3 5 6 5 5 5 4 4 4 3 3 2 2 3 4 4 2 2 2 3 4 5 5 6 7 7 7 8 8 8 8 8 8 8 7 8 9 10 12 13 14 15 16 16 17 17 18 19 19 19 20 20 21 22 23 25 27 28 29 29 29 29 28
10 9 8 7 8 8 8 9 8 8 8 7 6 6 7 7 6 7 7 6 5 3 3 4 4 4 4 3 3 3 3 2 2 2 3 3 4 4 3 3 3 2 3 3 4 7 8 7 7 7 7 9 8 8 8 9 8 8 8 8 9 10 11 12 13 14 15 16 17 19 20 20 21 21 21 20 21 22 24 27 28 28 29 30 30
11 10 10 9 9 9 9 9 9 8 8 7 7 8 8 7 6 7 6 5 5 4 3 3 2 3 4 2 1 1 2 2 3 3 3 5 5 4 4 5 4 4 3 3 4 6 6 7 8 6 5 7 8 8 8 9 9 10 10 10 10 10 10 11 11 11 12 13 14 16 18 20 22 22 22 22 22 22 23 24 25 27 29 29 31
10 10 11 10 10 10 11 10 9 9 9 8 8 8 8 7 6 6 5 4 4 3 3 3 2 3 3 2 2 2 2 2 3 4 4 5 5 5 6 5 5 5 4 4 5 5 5 7 7 6 5 5 6 7 8 10 10 10 11 11 12 12 12 12 12 12 12 12 12 13 15 17 20 22 23 24 24 24 24 25 25 27 28 28 30
9 10 10 10 11 12 11 10 9 9 10 9 9 8 7 7 7 7 6 5 4 3 3 3 4 4 3 3 3 3 3 3 4 5 5 5 6 7 7 7 7 7 6 7 8 6 6 6 5 6 8 6 6 7 9 10 10 10 10 11 11 12 12 13 13 13 13 13 13 14 14 15 17 19 21 23 25 26 27 27 28 28 28 28 29
10 10 10 10 11 12 11 10 9 9 9 9 9 9 8 7 8 8 7 7 6 5 4 4 4 4 3 4 4 4 4 5 4 5 6 6 7 8 8 8 9 9 7 9 10 7 6 7 6 7 8 8 9 10 10 9 9 10 10 11 11 12 13 13 13 13 14 14 14 15 15 16 16 18 19 21 23 26 28 29 30 30 30 30 30
11 11 10 11 11 10 10 10 10 10 9 9 10 10 10 9 9 8 7 7 7 6 5 5 5 5 5 5 5 5 5 6 6 6 7 8 8 8 9 10 10 11 10 10 10 10 8 8 8 8 9 9 9 11 11 9 10 12 12 12 13 13 13 14 14 14 14 14 14 15 16 16 17 18 19 19 20 23 26 28 31 32 32 32 31
12 11 12 13 12 10 9 10 10 10 9 9 10 11 11 10 9 8 7 8 8 7 7 7 6 6 6 6 6 6 6 7 7 8 8 9 10 10 11 11 12 13 12 11 12 12 10 9 10 10 11 11 9 11 13 11 12 16 15 15 16 15 14 14 14 15 15 15 15 14 15 16 17 18 19 20 21 21 23 25 28 31 33 34 34
12 13 16 16 14 11 10 10 12 12 10 10 10 11 11 11 9 8 8 9 9 9 8 8 8 8 8 8 7 7 8 9 9 10 10 11 11 11 11 12 14 15 14 13 13 12 12 12 12 12 12 12 11 13 15 15 16 19 19 19 19 19 17 16 15 15 16 16 15 15 15 15 16 18 19 20 21 22 23 24 25 27 30 33 35
14 16 18 17 15 13 11 11 13 13 11 10 11 11 11 10 10 9 9 9 10 9 9 9 9 9 9 10 10 9 9 10 11 11 12 12 12 11 12 13 14 16 16 16 14 13 14 13 13 13 14 14 14 14 15 17 17 19 19 20 21 21 21 19 17 17 17 17 16 15 15 15 15 16 18 19 20 22 23 24 25 26 27 30 32
18 18 18 17 15 14 13 13 13 13 12 12 11 12 12 11 10 10 9 9 10 10 10 10 10 10 10 11 12 11 11 12 12 12 12 12 13 13 14 14 14 15 17 18 17 15 15 14 14 15 15 17 18 16 16 17 17 16 17 19 21 22 22 22 20 19 19 19 18 17 16 16 15 15 15 17 19 20 21 23 24 26 28 29 30
19 18 18 17 16 15 14 14 14 13 13 13 12 11 12 11 11 10 10 10 10 10 10 11 11 11 11 11 12 13 13 13 13 12 12 13 14 14 15 14 14 14 15 17 18 17 15 15 16 15 15 18 19 18 18 20 19 17 17 19 20 21 22 23 23 22 22 21 20 19 18 17 16 15 14 15 16 18 20 21 23 25 27 29 31
19 18 18 17 17 17 16 15 15 14 14 14 13 12 12 11 11 10 10 11 11 11 11 12 12 12 12 12 13 14 13 13 14 13 13 13 13 13 14 14 14 14 14 16 19 19 17 16 18 18 18 19 20 20 20 21 20 19 18 19 19 20 21 23 24 24 24 23 22 21 21 20 19 18 17 17 17 17 18 20 21 23 25 27 30
18 18 18 18 18 17 16 16 15 15 15 14 13 13 13 12 11 10 10 11 12 12 12 12 12 12 12 12 13 13 13 14 15 14 13 12 12 13 14 14 14 15 15 16 19 22 21 19 20 20 19 21 22 22 21 21 21 21 21 21 20 21 22 23 24 25 25 25 24 23 23 23 23 22 22 21 21 20 20 20 21 22 23 25 28
20 20 19 18 18 19 18 17 16 16 16 16 15 14 14 14 13 11 12 12 13 13 12 12 12 12 12 12 13 13 13 15 16 14 11 12 13 14 14 14 14 15 16 16 19 22 23 22 21 20 20 21 23 23 22 21 21 22 23 24 23 23 24 25 25 24 25 26 26 26 26 25 25 25 24 24 24 23 23 23 22 22 23 24 26
22 21 20 18 19 20 18 17 17 17 17 17 16 15 15 15 13 12 12 13 14 14 13 12 11 11 11 12 13 13 13 15 15 12 10 12 14 14 14 14 15 16 16 17 19 21 22 23 23 22 22 21 22 23 23 23 23 23 24 25 24 23 24 25 26 25 26 27 28 29 29 28 27 26 26 26 26 26 26 26 25 25 26 26 27
23 22 21 20 20 20 19 17 18 19 18 17 17 17 16 15 15 13 13 13 14 13 13 12 11 11 12 13 13 12 12 14 14 12 12 13 14 15 16 15 16 18 19 19 20 22 23 24 23 23 24 23 23 24 25 25 25 24 25 25 23 23 23 25 26 27 27 28 29 30 30 31 30 29 27 27 27 29 29 29 29 28 28 28 29
24 22 20 21 22 22 20 19 20 19 18 18 18 18 17 17 17 16 15 14 14 13 13 13 12 12 12 13 14 12 12 13 13 13 14 15 16 17 17 17 18 19 20 20 21 22 24 26 24 23 24 25 25 25 25 25 25 25 25 25 23 23 23 23 24 25 25 26 27 28 28 29 29 28 28 29 29 31 32 31 31 31 31 31 32
26 24 22 24 25 24 22 22 22 20 19 19 20 19 18 19 19 18 15 15 15 14 14 14 13 13 14 15 15 13 13 14 14 13 14 16 17 18 19 19 19 20 20 22 22 21 22 25 25 23 23 25 25 25 25 26 25 24 24 24 23 23 22 21 22 22 22 22 23 24 25 27 29 29 30 31 32 32 33 32 32 34 35 36 36
31 29 28 28 29 28 25 23 23 21 20 20 20 20 20 20 20 17 16 15 15 16 15 15 15 15 15 16 15 15 15 15 14 14 15 16 17 19 20 20 21 21 21 21 22 20 20 22 24 25 24 23 24 25 24 25 25 25 25 25 23 22 21 21 23 24 23 23 23 23 25 27 30 31 32 32 33 33 32 33 36 39 40 40 41
36 35 34 33 32 29 26 25 24 21 20 21 19 19 20 21 20 17 16 16 17 17 17 16 16 15 16 16 16 16 16 17 16 16 15 16 17 19 20 20 21 21 20 20 21 20 20 20 22 25 25 24 24 25 25 25 25 26 26 25 24 23 22 22 25 26 25 25 25 24 25 27 29 31 32 32 33 34 34 35 39 42 42 41 43
43 42 42 40 36 31 28 27 25 23 23 22 19 18 19 20 19 18 17 17 18 19 19 18 17 17 17 17 17 17 17 18 18 16 15 16 17 18 20 21 21 21 21 22 22 22 21 21 23 25 26 26 25 25 25 24 24 24 24 25 27 25 24 25 26 26 26 27 28 25 24 26 28 30 31 32 32 34 36 37 39 41 40 39 42
46 43 43 42 36 31 30 29 27 26 26 23 18 18 19 19 19 18 18 18 18 20 21 19 19 19 19 19 18 18 18 19 19 17 17 18 18 19 20 21 22 22 23 24 24 24 24 23 26 27 26 26 24 23 23 23 24 26 26 27 27 25 26 28 28 27 28 29 30 28 24 24 27 29 30 32 33 33 35 36 35 35 35 37 43
47 43 43 43 39 35 33 32 32 30 28 24 21 20 19 18 18 18 19 19 19 20 22 22 21 20 19 19 19 19 19 20 20 20 21 21 21 21 21 21 22 23 24 24 24 25 24 24 26 27 26 27 26 24 24 26 27 28 27 26 26 25 27 30 31 30 28 28 30 30 27 25 28 32 32 33 34 34 33 33 33 34 37 41 47
48 46 44 44 42 39 37 36 36 34 31 27 26 25 23 20 20 19 20 21 20 20 22 23 22 21 20 19 19 21 23 23 23 24 25 26 26 24 22 22 22 23 24 24 25 25 25 25 26 26 26 28 29 28 27 28 27 26 26 27 29 29 30 31 32 30 26 27 29 31 31 28 30 35 35 31 31 32 32 33 34 38 43 46 49
48 47 46 44 43 42 41 40 38 35 32 29 28 28 28 25 23 21 22 23 22 21 22 23 23 22 21 20 20 23 26 27 27 25 25 26 25 23 22 22 22 23 23 24 25 25 25 26 27 27 27 28 29 29 28 26 26 27 30 32 31 30 30 29 29 28 27 27 28 30 33 31 27 31 33 30 29 32 33 34 36 40 46 50 52
50 48 46 46 45 42 41 41 38 35 32 29 28 29 30 28 25 25 26 24 22 23 24 24 24 23 23 23 24 25 27 29 28 24 21 22 22 21 22 22 22 22 24 26 27 27 27 27 27 27 27 26 27 28 27 26 27 29 32 32 30 28 27 27 28 30 29 29 28 28 31 30 25 28 34 34 33 34 35 36 39 44 50 55 55
51 50 47 47 46 42 40 39 35 32 30 27 27 28 28 27 28 28 28 26 24 26 26 26 26 25 26 27 27 26 27 27 26 23 21 19 19 20 21 22 22 23 24 26 26 26 25 26 26 26 25 24 25 27 27 27 28 30 29 29 31 31 29 29 30 30 29 28 27 29 34 33 29 31 35 35 35 36 38 40 45 51 56 58 56
49 52 50 48 46 42 39 35 33 32 28 25 27 28 26 26 29 29 28 27 27 28 28 28 28 27 28 30 28 25 26 27 24 22 20 19 19 21 21 22 24 24 25 25 25 24 25 26 27 27 25 24 25 27 28 29 30 32 30 29 31 30 27 27 27 26 27 27 26 31 37 35 32 33 35 36 37 38 41 46 53 57 58 57 53
44 50 50 48 46 41 36 34 33 32 26 22 27 30 27 28 29 28 27 28 28 28 29 30 30 30 31 32 29 26 25 26 24 21 20 19 21 22 22 22 23 24 25 25 26 27 27 28 28 27 26 26 26 26 27 28 29 29 26 24 25 24 23 25 26 27 28 27 26 29 34 36 35 36 38 37 36 38 46 54 58 58 56 52 46
40 45 44 44 44 39 37 35 32 29 24 23 28 31 29 31 30 26 27 29 29 29 32 32 30 29 29 28 27 25 22 22 23 21 20 21 22 22 22 22 23 24 24 24 24 26 26 27 28 27 27 27 27 26 25 25 24 22 21 20 21 21 23 27 30 31 30 29 28 27 29 36 39 38 37 35 35 43 54 58 58 56 54 50 44
40 41 40 39 38 37 37 35 29 25 24 24 28 30 30 33 32 27 27 28 29 31 34 32 28 28 27 26 25 22 20 21 23 22 22 22 21 20 21 22 23 24 23 21 19 19 22 23 23 23 24 26 27 26 25 23 21 20 21 22 21 19 23 29 32 33 32 31 30 27 28 37 42 38 34 34 41 53 57 55 56 56 53 49 44
39 38 37 37 36 35 34 31 26 24 24 26 29 30 31 33 32 28 27 27 29 33 32 27 27 27 26 25 22 19 20 22 23 22 22 21 20 20 20 20 20 20 21 19 16 16 19 19 19 19 19 20 21 22 21 21 21 21 22 23 21 19 23 29 31 33 34 32 29 26 30 38 43 40 33 33 43 55 57 54 55 56 51 47 44
Wind_Direction
252 254 257 254 251 251 250 254 258 260 269 278 281 283 294 298 302 305 305 311 310 309 316 323 330 325 319 316 311 308 302 295 289 282 278 272 270 274 271 266 265 265 262 258 254 251 252 247 235 227 224 222 222 222 219 214 211 214 218 222 226 227 224 220 218 220 227 236 238 238 238 236 233 232 233 232 233 239 247 251 254 254 254 254 252
247 249 250 250 250 250 249 253 258 262 268 277 279 281 290 292 299 308 308 315 315 315 328 331 329 322 315 319 316 305 300 295 294 290 283 276 263 262 270 266 260 262 261 259 257 253 253 251 244 232 224 225 224 220 221 223 219 215 217 218 224 229 229 227 224 222 222 228 235 238 239 240 239 239 240 240 237 237 242 249 255 258 256 253 253
243 246 248 250 251 251 253 254 257 265 270 273 278 281 288 294 299 307 309 316 321 324 332 332 326 322 320 327 325 310 299 294 297 297 287 281 267 255 265 268 260 258 257 257 257 255 253 251 246 237 228 228 229 224 221 226 228 225 223 220 222 227 231 231 228 225 223 224 229 232 235 237 239 240 243 244 245 244 242 244 249 256 259 255 253
243 246 248 249 251 252 255 258 262 268 272 272 277 284 291 296 300 306 309 314 324 327 330 333 323 321 328 328 325 317 302 294 294 289 284 286 280 267 260 264 263 260 258 258 258 256 255 252 246 240 233 233 234 232 225 225 229 231 231 228 226 227 230 233 232 230 227 226 227 229 232 234 236 238 241 244 247 250 250 249 247 252 257 256 255
246 247 248 252 254 255 256 263 267 265 271 275 278 285 292 299 304 307 309 318 330 326 327 327 309 321 333 325 325 323 309 306 300 289 287 288 288 281 269 266 267 266 264 264 264 264 263 259 253 246 238 235 237 238 232 227 228 230 233 234 233 232 232 233 234 235 233 232 231 231 233 235 236 237 239 243 246 250 253 253 253 253 256 257 256
254 253 253 256 259 261 261 262 263 265 271 275 279 286 291 297 303 302 308 322 325 318 321 314 304 324 328 323 326 321 320 316 298 291 293 285 281 285 283 277 273 272 269 269 270 270 270 269 264 256 245 238 237 239 238 235 231 230 232 235 237 237 236 237 237 236 236 237 236 236 236 236 237 238 239 241 244 248 251 254 255 256 256 256 256
260 260 260 260 260 261 263 260 261 267 272 272 279 286 288 293 296 296 309 315 308 316 319 310 310 324 321 325 323 314 328 313 298 309 305 295 291 289 290 282 278 280 275 272 272 270 272 273 272 267 256 246 241 241 242 241 238 236 236 236 238 241 242 244 244 242 241 242 243 243 242 241 239 239 240 241 241 244 248 252 254 256 256 255 254
262 264 265 264 260 258 258 259 262 266 267 271 280 281 280 287 288 291 304 305 304 314 310 304 313 318 317 323 311 310 322 299 306 320 300 300 311 311 313 309 305 297 281 269 269 271 271 271 273 273 266 257 250 247 247 245 243 243 245 244 242 245 246 247 248 248 248 248 248 247 246 247 245 243 242 242 243 243 245 248 252 254 254 255 253
265 267 267 263 258 255 254 257 261 264 265 270 277 274 277 283 285 292 300 302 304 305 299 299 308 310 313 311 303 309 303 286 302 300 306 329 342 338 340 344 346 329 309 280 266 267 270 271 272 275 274 268 260 255 252 250 248 247 251 252 250 249 249 251 252 253 253 252 251 248 246 247 249 249 246 244 244 245 246 246 249 252 254 255 255
269 269 267 263 257 255 255 257 260 262 264 270 272 271 277 282 284 293 298 298 296 289 287 291 300 309 309 296 296 305 282 275 289 295 340 346 341 353 344 342 359 356 350 337 297 259 265 272 273 276 277 273 269 264 258 254 252 249 250 253 256 256 256 256 258 256 254 253 252 250 248 247 248 251 252 250 247 246 248 247 247 249 252 255 256
265 265 264 262 262 260 256 256 259 262 267 270 269 269 274 278 284 292 294 296 292 283 282 289 299 309 302 291 298 310 292 267 279 6 32 337 328 357 347 341 352 350 351 351 341 329 283 276 271 269 269 270 269 267 264 261 257 253 251 251 255 259 259 259 259 259 256 257 257 254 253 251 248 249 251 252 251 249 248 248 248 247 248 252 255
258 259 260 260 263 264 259 257 261 264 266 265 261 263 271 278 284 287 287 288 289 286 290 297 303 303 291 285 297 308 307 287 97 67 31 344 330 344 349 344 347 338 335 337 331 332 323 299 279 266 265 273 275 268 264 264 263 260 257 255 256 259 261 259 259 261 261 262 263 259 255 251 248 247 248 249 251 251 251 251 250 248 247 248 251
255 256 260 263 263 266 265 261 261 260 257 253 255 266 276 281 280 276 273 271 274 281 291 305 313 302 285 275 294 301 309 340 45 50 2 348 341 343 360 349 348 350 343 333 315 307 307 299 288 279 275 283 287 279 270 268 268 265 262 260 259 260 261 260 258 259 260 262 262 260 255 251 247 246 247 247 248 251 252 253 253 252 250 249 250
258 259 264 267 266 268 268 262 256 248 245 256 271 281 286 286 278 269 267 266 266 270 282 299 313 307 282 240 244 257 277 14 5 344 335 344 1 4 16 1 341 355 14 16 6 338 314 301 292 288 285 284 285 286 283 276 270 268 267 264 263 262 261 261 260 258 257 259 260 259 256 252 249 247 247 247 247 248 249 250 251 251 251 253 254
259 259 261 266 266 267 264 257 246 238 253 275 286 291 290 285 274 259 263 273 281 281 281 285 290 294 269 239 225 260 267 88 270 279 339 347 17 29 36 17 339 351 31 33 24 9 335 318 313 305 299 292 283 283 282 273 266 269 270 266 263 261 261 261 261 260 258 258 258 258 255 252 251 250 250 249 248 247 247 249 249 249 252 254 255
258 256 257 261 261 257 251 248 243 245 267 283 286 288 288 282 274 269 265 274 287 291 288 279 264 263 266 272 274 265 258 189 209 246 262 312 41 41 48 41 345 341 17 13 354 357 346 331 326 324 320 313 301 289 279 273 272 275 272 267 265 263 263 263 262 261 260 258 257 256 255 253 251 251 251 251 250 249 249 250 250 251 252 252 253
254 254 258 258 250 246 245 246 250 261 277 282 274 269 276 271 274 283 278 272 271 281 288 282 266 257 265 283 276 271 284 144 236 244 243 263 358 18 29 38 336 323 325 322 321 334 337 326 321 323 324 323 322 312 292 283 279 274 270 271 274 272 270 267 265 264 263 260 256 255 256 256 253 252 252 252 252 252 251 252 252 252 252 253 253
252 255 259 255 242 238 240 245 255 269 277 274 264 260 267 264 265 274 277 274 264 266 283 285 279 271 264 269 274 295 327 328 283 256 232 240 257 282 335 353 332 336 338 333 329 331 329 320 316 315 315 317 321 324 318 308 293 279 274 275 278 276 272 270 269 267 265 263 260 258 258 257 256 254 253 253 252 252 253 254 255 255 255 255 254
255 260 262 252 238 233 237 246 257 268 268 261 257 255 257 261 263 267 271 273 267 259 268 276 285 286 275 265 265 276 287 302 307 292 257 230 241 265 272 291 327 345 347 352 340 327 322 318 317 316 314 312 312 319 323 324 320 307 296 287 285 282 278 274 272 269 266 263 260 260 259 259 259 258 256 254 253 252 252 254 255 255 256 256 256
247 253 259 252 241 238 240 247 255 259 255 249 248 244 245 252 259 265 268 269 269 266 261 263 277 287 278 261 259 270 277 300 304 298 298 274 248 245 249 284 306 295 323 348 326 322 327 322 322 322 316 313 310 310 311 313 317 317 313 307 302 297 292 286 281 277 272 266 262 260 258 259 260 261 261 260 256 253 252 252 253 254 255 255 257
240 241 249 250 242 239 240 244 247 248 243 237 238 241 240 242 248 258 264 265 266 266 260 255 251 259 260 240 231 280 294 304 297 292 295 282 268 257 259 279 279 269 305 327 312 323 325 318 326 330 316 307 304 301 298 297 300 302 304 306 307 306 305 303 298 292 287 281 274 268 264 261 260 260 261 262 260 257 255 253 253 254 255 255 256
237 236 241 245 243 240 241 242 239 239 234 224 224 231 235 236 239 248 253 252 258 266 264 255 234 228 241 234 205 228 248 273 286 281 277 276 277 277 277 281 279 279 284 285 301 311 302 312 328 324 312 299 291 290 286 285 286 290 295 298 302 303 304 305 305 303 300 296 291 284 277 271 266 263 261 260 260 259 258 257 256 256 256 256 255
236 239 240 238 239 239 236 234 231 232 231 222 218 222 230 237 237 241 248 249 251 261 257 245 239 226 227 240 223 217 242 251 259 264 267 272 277 282 286 291 295 292 275 277 300 306 295 308 312 305 313 305 287 284 283 286 285 282 284 286 292 297 299 301 303 303 303 301 298 296 291 285 280 275 269 264 261 259 259 258 258 257 257 258 257
232 238 238 228 229 232 226 225 227 227 227 222 218 217 217 226 231 232 237 239 239 246 243 232 238 230 217 233 234 229 242 246 251 259 261 266 274 282 290 294 295 291 282 287 301 302 290 293 284 290 309 303 292 291 289 295 295 287 284 280 279 284 290 294 298 300 301 300 299 297 296 293 290 286 282 276 269 265 262 259 259 258 258 258 258
230 231 231 221 220 225 222 222 225 224 223 219 219 218 213 215 221 221 220 226 231 236 237 231 236 234 222 228 237 243 249 250 256 259 260 266 272 279 289 295 294 293 290 284 287 290 286 280 271 281 301 302 294 291 289 292 292 290 291 289 283 279 280 284 288 293 296 297 298 297 296 295 293 291 288 285 280 274 269 265 262 261 260 259 259
235 235 242 235 225 223 222 221 224 224 221 218 219 221 217 213 215 213 212 223 229 230 235 236 240 242 237 238 243 248 254 257 260 261 264 270 277 284 291 295 295 295 293 286 286 293 293 283 272 275 293 300 293 287 286 283 283 287 291 294 292 286 282 280 280 284 287 289 293 295 296 296 294 293 290 288 286 282 277 272 268 264 262 260 259
237 247 257 251 238 229 223 222 230 231 223 218 220 222 220 215 212 212 214 224 233 236 241 243 247 251 250 252 255 255 260 264 266 267 269 271 274 278 285 293 296 297 297 295 293 293 294 293 284 277 283 293 297 294 288 281 278 283 289 294 293 289 285 282 278 278 280 282 286 291 295 295 294 293 291 290 287 285 282 279 275 271 267 264 261
249 257 260 254 246 239 231 231 238 234 224 221 220 219 222 219 215 217 217 225 240 246 250 252 254 259 261 266 268 263 263 270 274 276 278 279 279 280 283 287 291 295 297 297 293 291 296 298 293 287 284 288 295 296 290 285 282 284 291 295 294 292 289 286 283 281 280 281 284 288 293 297 298 295 291 289 288 286 284 281 278 276 273 270 266
258 260 257 252 248 244 239 238 238 231 223 225 225 219 222 222 220 226 223 226 242 250 253 255 257 259 262 269 275 275 273 276 280 282 283 286 289 289 289 288 288 290 294 296 295 294 297 296 294 294 292 292 297 298 295 293 291 291 294 294 294 294 293 290 288 287 285 284 285 287 291 296 300 299 293 290 289 288 287 284 281 277 275 273 271
257 257 254 250 249 247 244 239 237 232 222 224 231 225 223 222 219 229 231 228 239 249 254 258 260 262 262 263 271 275 277 279 282 283 284 289 293 294 294 292 288 287 290 293 294 294 294 293 292 292 291 291 295 296 297 299 298 295 294 295 295 295 293 292 290 289 288 286 284 285 287 290 294 298 299 297 294 293 292 290 287 282 277 273 271
255 255 252 250 250 250 249 243 238 235 225 222 228 227 224 224 221 229 238 237 240 246 251 258 262 262 263 264 267 271 275 278 279 278 279 286 292 293 293 293 289 287 288 289 289 291 294 292 289 289 288 286 287 290 295 301 301 296 293 294 295 295 292 290 289 288 287 285 282 282 284 286 286 288 294 298 298 297 297 296 295 292 287 280 275
252 253 251 250 251 252 251 245 236 232 229 223 224 228 229 229 226 228 238 244 246 247 247 251 254 255 258 260 262 265 270 272 273 275 278 285 289 290 291 290 288 287 286 284 284 288 293 292 290 291 291 290 290 292 295 299 299 297 297 297 298 298 295 292 292 291 289 287 283 282 283 284 283 283 288 294 296 296 296 298 298 298 297 292 286
247 247 247 247 253 255 249 243 236 232 233 228 222 225 230 233 235 236 239 242 244 247 246 245 245 247 250 253 256 260 264 267 271 275 279 283 288 289 288 286 284 283 282 282 283 286 292 295 294 292 293 293 294 295 296 297 298 298 299 300 301 301 299 298 298 295 293 290 287 286 286 285 284 283 285 290 293 294 294 295 296 297 299 298 295
245 247 248 248 252 251 243 244 247 240 238 236 227 223 228 234 237 240 243 245 246 246 247 246 244 244 248 253 258 260 264 268 272 275 273 278 284 286 284 281 280 281 282 282 284 287 290 294 296 294 294 294 294 295 296 296 299 300 297 297 298 296 296 298 298 296 294 293 291 289 288 286 285 284 284 287 290 291 292 294 296 298 298 299 299
247 250 250 248 247 243 241 252 257 247 241 241 235 227 229 235 238 239 241 244 247 247 246 247 246 248 254 259 262 264 265 268 273 276 278 284 290 292 292 290 287 290 293 289 289 291 292 294 295 295 295 295 294 296 298 298 301 302 300 298 296 293 292 293 294 293 292 291 290 288 286 284 282 283 284 284 286 288 292 295 296 298 299 299 299
254 255 251 250 245 240 247 257 253 245 242 243 240 232 231 240 245 246 244 243 245 245 246 247 247 250 256 259 261 262 261 263 269 279 288 296 301 300 299 297 293 294 297 292 289 290 292 295 297 297 295 295 297 299 301 302 303 303 302 301 299 297 296 294 292 292 291 291 291 291 290 285 281 282 283 283 283 284 287 292 296 300 302 302 300
253 252 251 252 247 241 248 254 248 244 243 242 240 234 235 246 252 253 251 246 244 245 246 248 249 251 253 255 258 259 258 260 267 278 288 296 302 303 301 299 296 295 296 296 293 286 283 289 297 300 296 294 297 300 301 303 303 301 300 300 298 297 297 294 293 294 294 294 294 294 294 290 287 289 289 288 285 283 285 292 299 304 306 305 304
248 246 244 245 245 245 246 244 242 243 240 236 235 235 240 250 254 255 255 250 245 246 247 248 252 254 255 256 257 256 257 262 268 277 285 292 299 304 305 304 303 301 297 294 291 284 277 281 291 299 297 292 294 297 300 301 300 299 299 298 296 295 294 292 292 293 292 290 287 287 289 288 289 293 296 296 292 289 290 296 302 306 308 308 307
244 243 242 239 240 245 243 235 234 234 231 230 232 235 241 249 253 254 257 255 251 250 250 250 252 255 259 259 259 258 259 264 272 279 287 294 299 303 304 303 302 298 292 288 287 284 281 279 283 290 294 293 292 295 299 300 298 298 300 298 296 294 292 292 292 293 292 289 287 287 288 288 290 295 298 297 295 293 295 299 302 304 307 308 309
240 240 241 238 237 239 237 232 229 227 225 223 223 229 238 246 251 255 259 261 259 257 257 256 255 255 258 258 259 260 261 266 275 282 286 292 297 300 300 300 299 295 292 292 293 292 288 285 284 287 291 294 294 295 298 297 293 295 298 297 295 294 293 293 293 293 293 292 290 287 285 286 289 292 293 291 290 292 294 297 298 300 304 306 309
240 239 239 239 238 238 236 230 225 223 219 212 211 223 231 240 250 256 262 265 264 263 263 262 259 257 257 258 259 260 260 265 274 280 282 286 291 294 296 297 296 295 294 295 297 297 295 293 292 293 293 293 293 295 295 293 291 295 298 297 294 294 295 295 294 293 293 294 292 287 282 283 285 287 287 286 287 289 290 290 290 293 296 297 300
241 239 240 240 238 237 236 229 222 218 212 210 217 221 223 235 246 251 259 264 263 264 264 263 261 258 259 262 265 267 268 270 273 277 279 282 286 290 292 292 291 291 293 294 294 296 296 295 295 296 296 295 296 297 295 294 295 297 299 296 294 295 296 296 295 295 295 294 292 288 283 283 285 287 287 285 287 287 284 283 283 285 291 295 297
240 239 239 239 237 236 236 230 223 217 211 215 224 217 212 225 237 243 254 261 263 263 264 264 261 258 261 265 266 271 276 278 278 279 280 282 284 284 286 288 289 290 291 291 293 295 294 293 293 294 294 295 297 297 296 296 296 296 295 294 296 298 298 298 297 297 294 293 292 289 286 285 287 290 290 286 285 285 282 282 283 285 291 299 300
239 238 237 237 237 237 234 228 223 219 215 221 226 217 212 221 228 235 248 256 260 263 265 265 263 261 264 266 265 271 281 286 287 285 282 282 281 279 281 285 287 288 289 288 291 293 292 291 291 291 291 293 294 295 297 297 296 294 294 296 298 298 297 296 295 293 292 292 291 288 288 289 291 291 290 287 284 284 284 284 284 286 292 299 299
239 238 238 237 236 234 229 224 223 221 218 223 224 216 216 221 221 229 243 252 260 265 266 266 265 265 267 269 271 277 284 290 291 288 282 278 278 279 283 287 289 290 291 291 293 294 292 291 290 290 291 292 292 294 296 296 295 296 297 298 297 295 292 291 289 288 289 290 290 289 288 289 292 291 290 289 288 287 286 284 285 291 297 299 297
240 239 238 238 236 232 226 224 224 219 214 217 216 212 217 220 217 225 240 251 260 264 264 264 265 266 268 270 274 280 286 289 288 284 281 278 279 282 286 289 291 292 293 295 297 298 295 293 293 292 293 291 290 292 293 293 293 293 294 294 293 291 290 289 288 288 292 297 299 295 289 289 295 295 290 291 291 288 286 288 292 297 300 299 296
242 241 241 240 238 232 225 223 223 215 211 214 213 215 220 217 215 224 237 250 260 261 262 264 265 266 268 270 274 281 287 287 282 278 279 279 279 282 285 287 288 289 291 292 292 291 289 290 291 290 290 289 288 290 292 292 291 291 290 290 290 290 290 290 290 291 296 299 297 290 286 290 297 296 292 294 294 289 289 296 301 302 301 300 297
244 243 242 240 238 230 220 219 219 215 218 222 218 219 220 215 218 229 238 250 261 262 262 264 264 266 269 273 280 287 288 283 277 276 280 281 281 284 286 288 289 291 292 292 291 290 288 286 285 286 289 292 293 293 293 293 292 292 291 290 290 291 291 291 291 291 292 291 286 283 285 292 298 298 296 298 296 291 296 303 306 305 304 303 301
245 240 238 237 235 226 218 217 216 218 230 234 222 219 217 217 225 236 242 252 265 268 268 269 267 269 272 277 285 289 283 275 276 281 284 283 284 287 288 290 292 292 293 292 294 296 293 289 289 293 297 299 300 298 295 291 288 289 292 292 290 291 291 290 290 291 291 289 287 285 286 294 302 303 299 298 296 297 303 308 309 308 307 306 303
242 235 232 231 228 222 218 217 217 226 240 236 221 217 218 220 229 240 246 252 263 272 276 275 270 267 271 281 289 287 276 273 279 284 286 285 288 290 290 292 292 292 294 295 295 294 291 291 295 299 302 303 303 302 300 296 292 294 297 297 293 289 288 289 290 293 293 290 290 292 293 300 307 306 301 300 302 305 306 308 309 310 308 306 303
238 232 229 227 223 217 214 216 224 236 238 228 219 218 220 224 233 244 248 252 266 278 279 271 268 272 277 284 287 278 271 275 281 284 285 288 290 291 290 290 289 289 293 294 291 287 288 291 294 295 297 299 300 301 302 302 301 300 300 300 297 291 288 289 292 294 294 292 293 297 300 305 308 307 304 304 305 307 308 308 309 310 306 303 303
Height
1587 1587 1587 1587 1587 1587 1587 1588 1588 1588 1588 1588 1588 1587 1587 1587 1586 1585 1585 1584 1584 1583 1582 1581 1581 1581 1580 1580 1579 1579 1578 1577 1577 1577 1576 1576 1576 1575 1574 1574 1574 1575 1575 1576 1576 1576 1576 1577 1577 1577 1578 1579 1580 1580 1581 1582 1582 1583 1583 1584 1585 1586 1586 1587 1588 1589 1589 1590 1590 1591 1592 1593 1594 1595 1595 1596 1596 1597 1598 1598 1599 1599 1599 1600 1600
1586 1586 1586 1586 1586 1586 1587 1587 1587 1587 1587 1587 1587 1586 1586 1586 1585 1585 1584 1583 1583 1582 1581 1581 1581 1581 1579 1579 1578 1578 1578 1577 1576 1576 1575 1575 1575 1574 1574 1573 1573 1573 1574 1574 1575 1575 1575 1575 1576 1576 1577 1578 1578 1579 1580 1581 1582 1582 1583 1583 1584 1585 1586 1586 1587 1588 1588 1589 1589 1590 1590 1591 1592 1593 1594 1595 1595 1596 1596 1597 1597 1598 1598 1599 1599
1585 1585 1585 1585 1586 1586 1586 1586 1586 1586 1586 1586 1586 1585 1586 1585 1584 1584 1583 1582 1582 1581 1581 1581 1581 1580 1579 1577 1577 1577 1577 1576 1576 1576 1575 1575 1574 1573 1573 1573 1572 1572 1572 1573 1573 1574 1574 1574 1575 1575 1576 1577 1577 1578 1579 1580 1581 1581 1582 1583 1583 1584 1585 1585 1586 1586 1587 1588 1588 1589 1589 1590 1591 1592 1593 1593 1594 1595 1595 1595 1596 1597 1597 1597 1598
1584 1584 1584 1585 1585 1586 1586 1586 1586 1586 1585 1585 1585 1585 1585 1584 1583 1583 1582 1582 1581 1580 1580 1580 1580 1579 1578 1577 1576 1576 1575 1575 1575 1576 1575 1574 1573 1572 1572 1572 1572 1571 1571 1572 1572 1573 1573 1574 1574 1574 1575 1576 1576 1577 1578 1579 1579 1580 1581 1582 1582 1583 1583 1584 1584 1585 1585 1586 1587 1588 1588 1588 1589 1590 1591 1592 1593 1593 1594 1594 1595 1595 1596 1596 1597
1583 1583 1584 1584 1584 1585 1585 1585 1585 1584 1584 1584 1584 1584 1584 1583 1583 1582 1581 1581 1581 1580 1580 1580 1580 1578 1578 1577 1576 1575 1574 1574 1575 1575 1574 1574 1573 1572 1572 1571 1571 1571 1571 1571 1571 1572 1572 1573 1573 1573 1574 1575 1575 1576 1576 1577 1578 1579 1580 1581 1581 1582 1582 1582 1583 1583 1584 1585 1586 1586 1587 1588 1588 1588 1589 1590 1591 1592 1593 1593 1594 1594 1595 1595 1596
1582 1582 1583 1583 1583 1584 1584 1584 1584 1583 1582 1582 1583 1583 1582 1582 1582 1581 1580 1580 1580 1580 1580 1579 1578 1577 1577 1576 1575 1574 1574 1574 1574 1574 1573 1573 1573 1572 1571 1571 1571 1570 1570 1570 1570 1570 1571 1571 1572 1573 1573 1573 1574 1574 1575 1576 1577 1578 1578 1579 1580 1580 1581 1581 1581 1582 1583 1584 1584 1585 1586 1587 1587 1587 1587 1588 1589 1590 1591 1592 1592 1593 1594 1594 1595
1581 1581 1581 1582 1582 1583 1583 1583 1582 1581 1581 1581 1581 1582 1581 1581 1580 1580 1580 1580 1580 1579 1579 1578 1577 1577 1576 1575 1575 1574 1573 1574 1573 1573 1573 1572 1572 1571 1571 1571 1570 1570 1570 1570 1569 1569 1570 1570 1571 1571 1572 1572 1573 1573 1574 1575 1576 1577 1577 1577 1578 1579 1579 1580 1580 1581 1582 1583 1583 1584 1585 1586 1586 1586 1586 1587 1588 1588 1589 1590 1591 1592 1592 1593 1593
1579 1579 1580 1580 1580 1581 1582 1581 1580 1580 1580 1579 1580 1580 1580 1579 1579 1579 1579 1579 1579 1579 1578 1577 1576 1576 1575 1575 1574 1573 1573 1573 1573 1573 1572 1571 1571 1571 1570 1569 1569 1569 1569 1569 1569 1568 1568 1569 1569 1570 1571 1571 1572 1572 1572 1573 1574 1575 1576 1576 1576 1577 1577 1578 1579 1580 1580 1581 1582 1583 1584 1584 1585 1585 1585 1586 1586 1587 1588 1589 1589 1590 1591 1591 1592
1577 1577 1577 1578 1578 1578 1579 1578 1578 1578 1578 1578 1578 1578 1578 1578 1578 1578 1577 1577 1578 1578 1577 1576 1575 1575 1575 1574 1574 1573 1573 1572 1572 1572 1571 1570 1570 1570 1570 1569 1568 1568 1568 1568 1569 1568 1568 1568 1568 1569 1569 1570 1570 1571 1571 1572 1572 1573 1574 1574 1575 1575 1575 1576 1577 1578 1579 1579 1580 1581 1582 1583 1583 1584 1584 1585 1585 1585 1586 1587 1588 1589 1589 1590 1590
1575 1575 1574 1575 1575 1575 1576 1576 1576 1576 1576 1576 1576 1576 1576 1576 1576 1576 1576 1576 1577 1577 1576 1575 1575 1574 1574 1574 1573 1572 1572 1572 1572 1571 1571 1571 1571 1571 1570 1569 1568 1568 1567 1567 1567 1567 1567 1567 1567 1568 1568 1568 1569 1569 1570 1570 1570 1571 1572 1572 1573 1573 1574 1574 1576 1576 1576 1577 1578 1579 1580 1581 1582 1583 1583 1583 1584 1584 1584 1585 1586 1587 1588 1588 1589
1573 1573 1572 1573 1573 1573 1574 1574 1574 1574 1574 1574 1574 1574 1575 1575 1575 1575 1575 1575 1575 1575 1575 1574 1574 1574 1573 1573 1572 1571 1571 1571 1571 1571 1572 1572 1571 1571 1571 1570 1569 1568 1567 1567 1567 1567 1567 1567 1567 1567 1567 1567 1568 1568 1568 1568 1569 1569 1570 1570 1571 1571 1572 1573 1573 1574 1574 1575 1576 1578 1579 1580 1580 1580 1581 1581 1582 1583 1583 1583 1584 1585 1586 1586 1587
1572 1571 1571 1572 1572 1572 1572 1572 1573 1573 1573 1573 1573 1573 1573 1573 1574 1574 1574 1574 1574 1574 1574 1574 1573 1573 1573 1572 1571 1571 1571 1570 1571 1571 1572 1572 1571 1571 1571 1570 1569 1568 1567 1567 1566 1566 1566 1566 1567 1567 1567 1567 1566 1567 1567 1567 1567 1568 1568 1568 1569 1569 1569 1570 1571 1571 1572 1573 1575 1576 1576 1576 1577 1578 1578 1579 1580 1581 1581 1582 1582 1583 1583 1584 1585
1570 1570 1570 1570 1571 1571 1571 1571 1571 1572 1572 1572 1572 1572 1572 1572 1572 1572 1573 1573 1573 1574 1573 1573 1573 1573 1573 1572 1571 1571 1570 1570 1571 1571 1572 1572 1572 1571 1571 1570 1569 1568 1567 1567 1566 1566 1566 1566 1566 1566 1566 1566 1566 1566 1566 1566 1566 1566 1566 1566 1567 1567 1567 1568 1569 1569 1570 1571 1572 1573 1573 1573 1574 1575 1576 1577 1577 1578 1579 1580 1580 1581 1581 1582 1582
1569 1569 1569 1569 1570 1570 1570 1570 1571 1571 1571 1571 1571 1571 1571 1571 1571 1571 1572 1572 1573 1573 1573 1572 1572 1573 1573 1572 1572 1571 1570 1571 1571 1572 1572 1572 1572 1571 1571 1570 1569 1568 1567 1567 1566 1565 1565 1565 1565 1565 1565 1565 1565 1564 1565 1565 1565 1564 1565 1565 1565 1565 1566 1566 1567 1567 1568 1569 1569 1569 1570 1571 1572 1572 1573 1574 1575 1575 1576 1577 1578 1578 1579 1579 1580
1568 1568 1568 1569 1569 1569 1569 1569 1570 1570 1570 1570 1570 1570 1570 1570 1570 1571 1572 1572 1572 1572 1572 1571 1572 1573 1572 1572 1572 1571 1570 1571 1572 1572 1572 1572 1572 1571 1570 1570 1568 1567 1567 1567 1566 1565 1565 1564 1564 1564 1564 1564 1564 1564 1564 1564 1564 1563 1564 1563 1563 1564 1564 1564 1565 1565 1566 1566 1567 1567 1567 1568 1569 1570 1570 1571 1572 1573 1574 1574 1575 1576 1576 1577 1577
1567 1567 1567 1568 1569 1569 1569 1569 1569 1569 1569 1569 1569 1570 1570 1570 1570 1570 1571 1572 1572 1572 1571 1571 1571 1572 1572 1571 1572 1571 1570 1570 1571 1572 1572 1572 1572 1571 1570 1569 1568 1567 1567 1567 1566 1565 1564 1564 1563 1563 1563 1563 1563 1563 1563 1562 1562 1562 1562 1561 1562 1562 1562 1563 1563 1563 1564 1564 1564 1564 1565 1565 1566 1567 1567 1568 1569 1570 1571 1571 1572 1573 1573 1574 1574
1566 1566 1567 1567 1568 1568 1568 1568 1568 1569 1569 1569 1569 1569 1570 1570 1570 1570 1570 1571 1572 1572 1572 1571 1571 1571 1571 1571 1571 1570 1569 1570 1571 1571 1572 1572 1572 1571 1570 1569 1568 1567 1567 1566 1565 1565 1564 1563 1563 1562 1562 1562 1562 1562 1562 1561 1561 1561 1560 1560 1560 1560 1561 1561 1562 1562 1562 1562 1562 1562 1563 1563 1563 1564 1564 1565 1566 1567 1568 1568 1569 1570 1570 1571 1572
1565 1565 1565 1566 1567 1567 1568 1568 1568 1568 1568 1568 1569 1569 1569 1569 1569 1569 1570 1570 1570 1571 1572 1571 1571 1570 1570 1570 1570 1570 1570 1571 1571 1571 1571 1572 1572 1571 1570 1569 1568 1567 1566 1566 1565 1565 1564 1563 1562 1562 1562 1561 1561 1561 1561 1560 1560 1560 1559 1559 1558 1559 1559 1559 1559 1560 1560 1560 1560 1561 1561 1561 1561 1561 1562 1562 1563 1564 1564 1565 1566 1567 1567 1568 1569
1564 1564 1564 1565 1565 1566 1567 1567 1567 1567 1568 1568 1568 1569 1569 1569 1569 1569 1569 1569 1569 1570 1571 1571 1571 1570 1570 1570 1570 1570 1571 1571 1571 1571 1571 1571 1571 1571 1570 1569 1568 1568 1567 1566 1565 1564 1563 1563 1562 1561 1561 1561 1560 1560 1560 1559 1559 1559 1558 1558 1557 1557 1557 1557 1557 1558 1558 1558 1558 1559 1559 1559 1559 1559 1559 1560 1560 1561 1561 1562 1562 1563 1564 1565 1566
1562 1562 1563 1564 1564 1565 1566 1566 1567 1567 1567 1567 1567 1568 1568 1568 1568 1568 1568 1568 1568 1569 1570 1570 1571 1571 1570 1570 1570 1570 1570 1571 1572 1572 1572 1571 1570 1571 1571 1570 1569 1568 1567 1567 1566 1564 1563 1562 1562 1561 1560 1560 1559 1559 1559 1559 1558 1558 1557 1557 1556 1556 1555 1555 1555 1555 1555 1556 1556 1556 1556 1557 1556 1556 1557 1557 1557 1558 1558 1558 1559 1560 1560 1561 1562
1560 1561 1562 1563 1564 1564 1565 1565 1565 1565 1566 1566 1566 1567 1567 1567 1567 1567 1567 1567 1568 1568 1569 1569 1570 1570 1570 1569 1570 1570 1571 1571 1572 1572 1572 1572 1570 1570 1570 1570 1569 1568 1566 1566 1565 1564 1563 1561 1561 1560 1560 1559 1558 1558 1558 1557 1557 1557 1556 1556 1555 1555 1554 1553 1553 1553 1553 1553 1553 1554 1554 1554 1554 1554 1554 1554 1555 1555 1555 1556 1556 1556 1557 1558 1559
1559 1560 1561 1562 1563 1563 1564 1564 1564 1564 1564 1565 1565 1566 1566 1566 1566 1566 1567 1567 1567 1567 1567 1568 1568 1569 1569 1569 1569 1570 1570 1571 1571 1572 1572 1571 1571 1570 1569 1569 1568 1567 1566 1566 1565 1563 1562 1561 1560 1560 1559 1559 1558 1557 1556 1556 1555 1555 1555 1554 1554 1554 1553 1552 1552 1551 1551 1551 1551 1551 1551 1551 1551 1551 1551 1552 1552 1552 1552 1553 1553 1554 1554 1555 1555
1559 1559 1560 1561 1561 1562 1562 1562 1563 1563 1563 1563 1564 1565 1565 1565 1565 1566 1566 1566 1566 1566 1567 1567 1567 1567 1568 1568 1568 1569 1570 1570 1570 1571 1571 1571 1570 1570 1569 1568 1567 1567 1566 1565 1563 1563 1562 1561 1560 1559 1558 1558 1557 1556 1555 1555 1554 1554 1553 1553 1552 1552 1552 1551 1551 1550 1549 1549 1548 1548 1548 1548 1548 1548 1548 1549 1549 1549 1549 1550 1550 1551 1551 1551 1552
1558 1558 1558 1559 1560 1560 1561 1562 1562 1562 1562 1563 1563 1564 1565 1565 1565 1564 1565 1565 1566 1566 1566 1566 1566 1566 1567 1568 1568 1568 1569 1569 1569 1570 1570 1570 1569 1569 1568 1568 1567 1566 1566 1564 1563 1563 1562 1561 1560 1559 1558 1557 1556 1555 1554 1554 1553 1552 1552 1552 1551 1551 1550 1550 1549 1549 1548 1547 1547 1546 1546 1546 1546 1546 1545 1546 1546 1546 1546 1546 1547 1547 1547 1548 1548
1556 1556 1557 1558 1558 1559 1560 1561 1561 1561 1561 1562 1562 1562 1563 1564 1563 1563 1564 1565 1565 1566 1566 1566 1566 1566 1566 1567 1567 1568 1568 1568 1568 1568 1568 1568 1568 1567 1567 1567 1566 1565 1564 1564 1563 1562 1562 1561 1560 1558 1557 1556 1555 1554 1553 1553 1552 1551 1550 1550 1550 1549 1549 1548 1548 1547 1546 1546 1545 1544 1544 1544 1543 1543 1543 1543 1543 1543 1543 1543 1543 1543 1543 1544 1544
1554 1555 1555 1556 1557 1558 1558 1559 1559 1559 1559 1560 1560 1560 1561 1562 1562 1563 1563 1564 1564 1565 1565 1566 1566 1566 1566 1566 1566 1567 1567 1567 1567 1567 1567 1567 1567 1566 1566 1565 1564 1563 1563 1562 1561 1560 1560 1560 1559 1558 1556 1555 1554 1553 1552 1552 1551 1549 1549 1548 1548 1547 1547 1546 1546 1545 1545 1544 1543 1543 1542 1541 1541 1541 1540 1540 1540 1540 1540 1540 1540 1540 1539 1540 1540
1553 1553 1553 1554 1556 1556 1557 1557 1557 1557 1558 1558 1559 1559 1560 1560 1561 1562 1563 1564 1564 1564 1565 1565 1565 1565 1565 1565 1565 1566 1566 1566 1566 1566 1566 1566 1565 1565 1564 1563 1563 1561 1561 1560 1559 1559 1559 1558 1557 1557 1555 1554 1553 1552 1551 1550 1549 1548 1547 1547 1546 1545 1544 1544 1544 1543 1543 1542 1541 1541 1540 1540 1539 1538 1537 1537 1536 1536 1536 1536 1536 1536 1536 1536 1536
1551 1552 1552 1553 1554 1555 1555 1555 1556 1556 1556 1557 1557 1558 1559 1559 1560 1561 1562 1563 1563 1564 1564 1565 1565 1565 1565 1564 1564 1565 1565 1564 1564 1564 1564 1564 1563 1563 1563 1562 1561 1560 1559 1558 1558 1558 1558 1557 1556 1555 1554 1552 1552 1551 1549 1548 1547 1546 1545 1545 1544 1543 1542 1542 1541 1541 1540 1540 1539 1539 1538 1537 1536 1536 1535 1534 1533 1533 1533 1532 1532 1532 1532 1532 1532
1549 1550 1551 1552 1553 1553 1554 1554 1555 1555 1555 1555 1556 1557 1558 1558 1559 1560 1561 1562 1563 1563 1563 1564 1564 1564 1564 1564 1563 1563 1563 1563 1563 1562 1562 1562 1561 1561 1561 1560 1560 1559 1557 1556 1556 1556 1556 1556 1556 1554 1553 1551 1550 1548 1547 1546 1545 1545 1544 1543 1542 1541 1539 1539 1539 1538 1538 1537 1537 1536 1535 1535 1534 1533 1532 1532 1531 1530 1529 1529 1528 1528 1528 1528 1528
1548 1549 1550 1550 1551 1552 1552 1553 1553 1554 1554 1554 1555 1556 1556 1557 1558 1558 1559 1561 1561 1561 1562 1562 1562 1563 1563 1563 1563 1562 1562 1562 1562 1562 1561 1561 1560 1560 1559 1559 1559 1558 1557 1555 1553 1554 1555 1554 1554 1553 1552 1550 1548 1546 1545 1544 1543 1542 1542 1541 1539 1538 1537 1536 1536 1535 1535 1535 1534 1534 1533 1532 1531 1531 1530 1529 1528 1527 1526 1525 1525 1524 1524 1523 1523
1546 1548 1549 1549 1550 1550 1550 1551 1552 1552 1552 1553 1554 1554 1555 1556 1557 1558 1558 1559 1559 1560 1560 1560 1561 1561 1561 1562 1562 1561 1561 1561 1560 1560 1560 1560 1559 1559 1558 1557 1557 1556 1556 1555 1552 1551 1551 1552 1551 1551 1550 1548 1546 1545 1543 1541 1540 1540 1539 1538 1537 1536 1535 1534 1533 1532 1532 1531 1531 1530 1530 1529 1528 1527 1527 1526 1525 1525 1523 1522 1521 1521 1520 1519 1519
1544 1545 1546 1547 1548 1549 1549 1549 1550 1551 1551 1552 1552 1553 1554 1555 1555 1557 1557 1557 1557 1557 1558 1558 1558 1559 1559 1559 1559 1559 1559 1559 1559 1558 1558 1558 1557 1557 1557 1556 1556 1555 1554 1554 1552 1549 1548 1549 1548 1547 1546 1545 1543 1542 1541 1539 1538 1537 1536 1535 1534 1533 1532 1530 1529 1528 1527 1527 1527 1526 1526 1525 1525 1524 1523 1523 1522 1521 1520 1519 1518 1517 1516 1516 1515
1541 1541 1542 1543 1545 1546 1547 1548 1549 1550 1550 1550 1551 1552 1553 1553 1554 1555 1556 1556 1556 1556 1556 1556 1556 1556 1556 1557 1557 1557 1557 1557 1556 1556 1556 1556 1556 1555 1555 1554 1554 1553 1552 1552 1550 1548 1546 1546 1545 1544 1543 1542 1540 1539 1538 1536 1535 1534 1533 1531 1530 1529 1528 1527 1526 1525 1524 1523 1522 1522 1522 1521 1520 1520 1519 1518 1518 1517 1517 1516 1515 1514 1513 1512 1511
1539 1539 1540 1541 1542 1543 1545 1547 1548 1549 1549 1549 1550 1551 1551 1552 1553 1553 1554 1554 1554 1554 1554 1554 1554 1554 1554 1555 1555 1555 1555 1555 1554 1554 1555 1555 1555 1554 1553 1553 1552 1551 1551 1549 1548 1546 1545 1544 1543 1542 1540 1539 1538 1536 1535 1534 1532 1531 1530 1528 1527 1526 1525 1523 1522 1522 1521 1519 1518 1518 1517 1516 1516 1515 1515 1514 1513 1512 1512 1511 1511 1510 1509 1508 1507
1538 1539 1539 1540 1540 1541 1542 1544 1545 1546 1547 1548 1549 1549 1550 1550 1551 1552 1552 1552 1552 1553 1553 1553 1553 1553 1553 1553 1553 1553 1553 1553 1552 1552 1553 1553 1552 1552 1551 1551 1550 1549 1548 1547 1546 1544 1543 1542 1541 1539 1538 1537 1535 1533 1532 1531 1529 1528 1526 1525 1524 1523 1522 1520 1519 1518 1517 1516 1514 1513 1512 1511 1511 1510 1510 1509 1508 1507 1507 1506 1506 1505 1504 1503 1502
1539 1538 1538 1539 1539 1539 1540 1541 1541 1542 1543 1545 1547 1548 1548 1549 1549 1550 1550 1550 1550 1551 1551 1551 1551 1552 1552 1551 1551 1551 1552 1551 1551 1550 1550 1550 1550 1550 1549 1549 1548 1547 1546 1545 1543 1542 1540 1539 1538 1537 1535 1533 1532 1530 1529 1527 1526 1524 1523 1521 1520 1519 1518 1517 1516 1514 1512 1511 1510 1509 1508 1507 1506 1505 1505 1504 1503 1503 1501 1501 1500 1500 1499 1498 1497
1537 1536 1535 1536 1536 1535 1536 1538 1539 1539 1539 1541 1544 1546 1546 1546 1547 1548 1548 1548 1548 1548 1548 1549 1549 1549 1549 1549 1549 1549 1549 1549 1548 1548 1548 1548 1548 1547 1547 1547 1546 1545 1543 1542 1541 1539 1538 1536 1535 1534 1532 1531 1529 1527 1526 1524 1522 1521 1519 1518 1517 1515 1514 1513 1512 1511 1509 1508 1507 1505 1504 1502 1501 1500 1499 1498 1497 1497 1496 1495 1494 1493 1492 1492 1491
1531 1530 1529 1529 1530 1531 1531 1532 1535 1537 1537 1537 1539 1542 1543 1544 1545 1546 1546 1546 1546 1546 1546 1546 1546 1546 1546 1546 1546 1547 1546 1546 1545 1545 1545 1545 1545 1545 1545 1544 1544 1542 1541 1540 1538 1537 1535 1534 1532 1530 1529 1528 1526 1525 1523 1522 1520 1518 1516 1515 1514 1513 1512 1511 1509 1508 1507 1506 1504 1502 1500 1499 1497 1495 1493 1492 1491 1490 1489 1488 1487 1486 1485 1484 1484
1524 1524 1523 1522 1523 1525 1526 1527 1528 1531 1533 1534 1535 1537 1540 1542 1543 1543 1544 1544 1544 1544 1544 1544 1544 1544 1544 1544 1544 1544 1543 1543 1542 1542 1543 1543 1543 1543 1542 1542 1541 1540 1539 1538 1536 1534 1533 1531 1529 1527 1526 1525 1524 1522 1521 1519 1518 1516 1514 1512 1511 1510 1509 1508 1506 1505 1503 1502 1500 1498 1497 1496 1494 1492 1489 1487 1485 1484 1482 1482 1481 1479 1478 1477 1476
1513 1514 1514 1515 1517 1520 1521 1522 1523 1525 1527 1528 1529 1532 1535 1539 1541 1541 1542 1542 1543 1543 1542 1542 1542 1541 1541 1541 1541 1541 1541 1540 1540 1540 1540 1540 1540 1540 1540 1540 1539 1538 1537 1535 1533 1532 1530 1528 1527 1525 1523 1522 1521 1519 1518 1517 1515 1513 1512 1510 1508 1507 1506 1504 1503 1501 1499 1497 1495 1494 1494 1492 1490 1489 1487 1484 1481 1480 1478 1476 1474 1473 1472 1471 1469
1506 1508 1509 1511 1515 1517 1517 1518 1519 1520 1521 1521 1523 1527 1531 1534 1537 1538 1539 1540 1541 1541 1540 1539 1539 1539 1538 1538 1538 1538 1538 1538 1537 1537 1537 1537 1537 1537 1537 1537 1537 1535 1534 1532 1530 1529 1527 1525 1524 1522 1520 1519 1518 1517 1516 1515 1512 1510 1509 1507 1505 1503 1502 1500 1499 1498 1496 1494 1491 1489 1489 1489 1486 1484 1483 1480 1477 1476 1474 1472 1470 1468 1467 1466 1464
1503 1505 1505 1507 1510 1512 1512 1513 1513 1515 1516 1516 1518 1523 1526 1529 1533 1535 1536 1537 1538 1537 1537 1536 1536 1536 1536 1536 1536 1535 1535 1535 1535 1534 1534 1533 1533 1533 1533 1534 1533 1532 1531 1529 1528 1526 1524 1522 1521 1519 1517 1515 1515 1514 1513 1511 1509 1507 1505 1504 1502 1500 1499 1496 1494 1494 1493 1490 1487 1484 1484 1484 1482 1478 1476 1475 1473 1472 1470 1467 1465 1464 1462 1461 1459
1499 1499 1500 1501 1504 1506 1506 1507 1508 1510 1512 1512 1514 1518 1520 1524 1528 1531 1532 1534 1534 1534 1534 1533 1533 1533 1533 1533 1533 1533 1532 1531 1531 1531 1530 1530 1529 1529 1529 1529 1529 1529 1527 1526 1524 1523 1521 1519 1518 1517 1515 1512 1511 1511 1509 1507 1506 1504 1502 1500 1499 1497 1495 1493 1490 1489 1489 1487 1483 1479 1477 1478 1477 1472 1469 1468 1467 1466 1464 1461 1460 1458 1456 1454 1452
1493 1494 1495 1496 1499 1501 1502 1502 1503 1506 1508 1509 1512 1515 1516 1518 1523 1527 1529 1530 1530 1531 1530 1530 1530 1530 1530 1530 1530 1530 1529 1528 1528 1527 1526 1525 1525 1525 1526 1526 1525 1525 1524 1522 1521 1519 1518 1516 1514 1513 1512 1510 1508 1507 1506 1504 1502 1500 1498 1497 1496 1494 1491 1489 1487 1485 1485 1484 1480 1474 1470 1471 1472 1467 1463 1462 1461 1459 1457 1455 1454 1451 1448 1446 1444
1488 1490 1491 1492 1494 1497 1498 1499 1500 1502 1504 1506 1510 1513 1514 1516 1520 1523 1525 1526 1527 1528 1527 1527 1528 1527 1527 1527 1527 1526 1525 1524 1524 1523 1522 1522 1521 1521 1522 1521 1521 1521 1520 1518 1517 1515 1513 1512 1510 1509 1508 1507 1505 1503 1503 1501 1498 1496 1494 1493 1492 1490 1488 1486 1483 1481 1480 1479 1476 1470 1464 1465 1468 1464 1458 1457 1456 1454 1451 1449 1447 1444 1441 1438 1435
1484 1485 1486 1488 1489 1492 1494 1497 1499 1500 1501 1505 1508 1510 1512 1514 1517 1519 1522 1523 1524 1524 1524 1524 1524 1524 1524 1524 1523 1523 1522 1521 1520 1520 1519 1519 1518 1518 1518 1517 1517 1517 1516 1514 1513 1511 1509 1507 1506 1504 1504 1503 1501 1499 1499 1497 1495 1493 1491 1489 1487 1485 1483 1481 1478 1476 1475 1474 1471 1466 1459 1459 1462 1460 1454 1451 1449 1447 1445 1442 1439 1437 1433 1429 1426
1480 1481 1483 1484 1486 1488 1492 1495 1498 1499 1500 1504 1508 1509 1510 1513 1515 1516 1518 1520 1521 1521 1520 1521 1521 1520 1520 1519 1519 1519 1519 1518 1517 1517 1516 1516 1515 1515 1515 1514 1514 1514 1513 1512 1510 1509 1507 1504 1503 1501 1500 1499 1498 1496 1495 1493 1491 1488 1486 1484 1483 1480 1478 1476 1474 1473 1471 1470 1468 1463 1456 1455 1458 1454 1449 1446 1443 1440 1437 1434 1431 1428 1425 1420 1416
1477 1478 1480 1481 1482 1485 1490 1492 1494 1496 1499 1502 1506 1507 1509 1511 1512 1513 1515 1517 1518 1518 1518 1517 1517 1516 1516 1516 1515 1515 1516 1515 1514 1514 1514 1513 1512 1512 1511 1511 1511 1510 1510 1508 1506 1505 1504 1501 1500 1498 1497 1495 1494 1492 1491 1489 1486 1484 1482 1480 1478 1477 1475 1473 1471 1470 1468 1467 1465 1461 1454 1451 1452 1448 1442 1440 1438 1433 1429 1426 1423 1419 1415 1410 1407
1474 1475 1476 1476 1478 1483 1487 1489 1492 1495 1497 1500 1503 1505 1507 1509 1510 1511 1512 1513 1515 1515 1515 1515 1515 1513 1513 1513 1512 1512 1512 1511 1511 1511 1511 1510 1509 1509 1508 1507 1507 1506 1506 1505 1503 1501 1499 1497 1496 1494 1492 1491 1489 1488 1487 1485 1483 1481 1479 1477 1476 1475 1473 1470 1467 1466 1465 1463 1460 1457 1452 1447 1445 1442 1437 1433 1430 1425 1420 1417 1414 1409 1405 1401 1398
1471 1473 1474 1474 1477 1481 1484 1486 1490 1493 1495 1497 1500 1503 1504 1506 1507 1508 1509 1510 1511 1512 1512 1513 1513 1511 1510 1510 1510 1509 1509 1508 1508 1508 1508 1507 1506 1506 1505 1504 1503 1503 1503 1502 1501 1499 1496 1494 1492 1490 1488 1486 1485 1483 1482 1481 1480 1479 1477 1474 1473 1472 1470 1468 1465 1462 1459 1457 1456 1453 1449 1443 1440 1438 1433 1426 1421 1416 1413 1410 1405 1400 1396 1393 1390
1469 1470 1471 1474 1477 1480 1482 1486 1489 1492 1493 1495 1498 1500 1502 1503 1504 1506 1507 1509 1510 1510 1510 1510 1510 1509 1507 1507 1507 1507 1507 1506 1506 1505 1504 1504 1503 1503 1502 1501 1501 1500 1499 1499 1498 1496 1494 1491 1490 1487 1485 1484 1482 1480 1479 1478 1477 1476 1474 1472 1471 1470 1467 1465 1463 1459 1454 1451 1451 1450 1445 1439 1436 1433 1429 1423 1413 1405 1403 1402 1398 1393 1389 1387 1384